Theta_e
340 339 337 336 336 338 343 345 344 345 345 345 345 347 347 348 348 347 347 347 342 338 337 337 338 342 346 346 345 345 345 344 345 345 345 345 345 345 345 344 344 342 343 343 339 338 340 342 343 343 344 344 343 332 331 331 331 333 331 335 337 330
341 340 337 337 339 340 341 344 340 340 340 342 346 347 345 345 347 340 344 339 338 340 333 335 335 343 338 343 341 345 345 345 344 344 344 345 346 345 345 345 344 343 342 340 336 329 329 335 341 342 342 341 331 330 331 331 331 331 333 333 334 333
341 341 341 342 342 344 341 339 338 340 343 346 346 345 342 342 340 341 339 338 337 333 333 334 337 340 340 345 343 345 345 345 345 345 343 345 346 346 345 345 344 344 340 338 331 329 327 325 326 337 341 331 329 330 330 330 330 332 332 332 332 336
341 341 341 341 342 342 341 338 337 337 338 340 341 341 341 341 341 342 340 336 334 337 331 329 343 346 343 336 331 341 345 345 345 345 344 337 341 342 343 342 342 341 336 335 332 330 327 327 326 325 328 329 330 329 330 330 331 330 330 332 330 337
341 340 340 338 341 340 338 336 336 336 336 336 338 337 338 337 337 338 337 334 333 334 330 330 332 335 337 336 329 332 333 333 332 335 341 335 332 333 336 337 337 337 335 335 334 331 329 328 329 328 329 329 330 330 330 331 330 330 330 331 334 337
341 340 340 340 339 342 337 335 335 337 334 332 332 332 333 333 333 334 332 335 336 331 330 329 329 332 335 334 335 332 332 331 330 333 337 335 331 333 335 337 337 337 336 336 335 333 333 331 329 328 328 330 329 330 329 329 329 330 330 331 334 338
340 339 339 339 339 338 336 334 334 334 332 331 331 332 332 333 333 334 334 337 332 331 332 329 329 331 333 333 334 333 332 331 330 329 331 333 331 330 333 335 336 336 336 336 336 336 333 330 330 330 329 330 330 329 329 329 329 329 330 330 333 337
339 339 338 340 339 338 336 333 336 337 332 339 334 331 331 333 335 335 336 335 335 333 333 330 329 330 333 333 334 334 333 334 332 329 329 330 329 328 327 330 334 335 336 336 336 336 335 334 331 330 330 329 331 329 329 328 329 329 329 330 331 336
339 339 338 339 338 337 336 333 334 332 331 342 330 331 332 334 334 335 335 336 337 332 333 331 329 330 331 332 331 332 334 334 333 332 332 330 330 327 326 328 331 332 333 333 333 333 335 334 332 331 331 330 330 330 328 328 328 328 328 329 330 333
338 338 337 337 335 335 334 332 331 330 332 339 331 331 333 333 333 335 335 336 337 335 333 333 332 330 331 331 331 331 333 332 332 333 332 332 331 331 330 328 328 329 330 330 331 331 335 332 331 332 330 330 330 330 329 328 327 328 328 329 330 332
340 341 335 333 332 334 334 331 333 331 331 333 335 335 332 331 335 335 335 336 336 337 337 335 334 332 333 332 332 331 332 331 332 333 333 332 331 332 331 331 330 330 329 328 330 330 332 331 331 331 332 331 330 329 329 329 328 328 328 329 329 331
337 339 334 334 337 336 335 334 334 332 333 334 338 334 333 334 336 335 336 335 335 335 336 336 334 334 335 334 334 334 334 333 334 334 334 332 332 331 332 332 331 331 331 331 330 330 330 330 330 330 330 330 331 329 328 328 328 328 328 329 329 330
337 334 332 333 334 334 334 336 336 335 337 339 338 335 334 333 334 335 336 336 336 336 337 336 336 334 335 334 334 334 334 335 335 335 333 333 333 331 331 331 330 332 331 330 329 329 330 330 329 329 330 330 330 330 329 327 328 328 328 329 329 329
336 333 334 334 333 333 335 336 336 335 339 339 337 336 337 335 335 335 335 334 335 336 336 337 335 334 333 333 333 333 333 333 334 335 335 334 334 333 331 329 330 330 332 332 329 328 328 328 329 329 329 330 330 330 330 329 328 328 329 329 330 330
337 335 336 335 333 334 336 336 334 334 337 337 337 336 334 334 334 335 335 334 333 333 335 336 336 335 334 333 332 331 331 332 333 334 334 335 336 333 332 331 330 330 329 329 329 329 330 328 328 328 329 329 330 330 330 330 330 328 328 330 329 329
333 333 332 335 332 333 333 333 334 339 334 336 335 334 333 333 335 335 336 336 335 335 335 335 335 335 334 334 333 333 333 332 331 333 333 333 334 333 331 331 331 329 329 329 328 329 328 328 328 328 329 329 329 331 330 329 330 329 329 329 329 329
331 331 333 332 331 333 331 331 331 331 333 334 334 334 334 334 334 334 333 333 335 336 337 336 336 335 334 334 334 334 335 334 333 332 331 331 331 332 331 331 330 330 329 328 328 327 328 328 327 328 329 328 328 330 329 329 330 329 329 328 329 329
335 335 334 333 334 333 332 331 330 329 335 332 332 332 332 331 330 330 330 331 331 333 336 338 338 337 336 336 336 336 336 336 334 333 332 331 331 331 331 331 331 330 329 328 328 328 328 328 328 328 328 328 327 327 328 329 330 332 329 328 328 328
334 334 333 334 337 335 332 329 328 330 331 331 328 330 331 330 329 329 329 330 331 332 334 335 337 338 337 336 336 336 336 336 336 334 333 333 332 332 332 332 331 331 331 330 329 329 329 329 329 329 329 329 328 327 327 328 330 330 329 329 328 329
332 334 334 332 333 333 332 331 332 332 332 331 329 332 330 329 329 329 331 331 331 329 329 332 332 333 335 336 335 335 336 336 335 334 333 333 333 333 333 332 331 331 331 330 331 330 330 328 328 327 327 328 329 328 327 328 328 329 330 329 329 330
329 331 332 332 333 332 331 330 329 329 328 327 331 330 328 327 328 329 330 330 330 328 328 328 331 329 329 331 333 333 333 334 333 332 332 331 333 332 332 333 332 332 330 329 330 330 330 330 326 325 327 326 326 327 328 329 327 328 328 329 330 329
328 328 330 331 331 331 331 332 332 331 329 328 329 328 328 329 329 329 329 329 329 328 327 327 330 330 331 329 328 328 328 329 331 331 331 332 331 332 331 330 331 329 331 330 329 330 330 328 324 323 323 323 323 323 324 326 326 327 328 328 329 328
326 326 328 331 330 330 331 332 331 330 330 329 329 331 330 331 331 329 329 329 329 328 328 328 328 330 330 329 329 329 329 330 330 330 330 329 330 329 329 328 329 327 327 330 330 331 329 329 325 325 324 320 319 318 320 322 325 326 326 327 328 327
325 326 326 328 329 330 332 331 332 331 330 330 329 331 329 329 329 329 328 329 330 329 328 328 328 329 329 328 328 329 330 330 331 332 330 329 329 328 329 329 329 329 329 325 327 328 331 330 328 326 319 319 319 318 316 319 319 323 326 327 326 326
323 324 325 327 327 328 328 327 328 327 328 327 325 325 324 323 324 327 326 326 327 329 328 327 328 328 329 328 329 330 330 331 332 331 331 329 329 329 330 330 330 329 328 327 325 328 329 330 328 329 325 320 318 315 316 319 318 321 324 324 325 326
321 322 322 323 325 325 324 323 322 322 321 321 320 320 319 319 321 322 323 325 327 327 327 326 326 327 327 329 328 329 330 331 331 330 330 330 330 329 329 328 330 329 328 329 327 326 326 329 330 330 329 328 325 319 318 321 319 315 322 324 326 326
318 319 319 319 321 323 320 321 321 321 322 321 319 319 320 321 321 322 323 324 324 325 325 324 325 325 325 326 327 327 328 329 329 330 330 329 328 328 328 328 329 328 328 328 327 324 324 325 328 328 329 329 328 327 325 320 316 319 316 321 323 325
316 318 317 318 318 320 318 318 319 319 321 319 319 318 318 318 319 321 320 321 322 321 323 324 324 324 323 324 326 327 327 328 327 328 330 329 329 329 329 329 329 329 329 328 327 325 325 326 324 324 328 327 327 328 327 326 324 320 318 315 318 325
314 315 315 316 317 317 320 318 318 317 317 318 319 318 319 319 318 319 317 318 318 319 320 322 323 322 321 322 324 323 322 322 322 324 325 324 325 326 326 326 328 328 328 329 329 329 327 326 326 325 325 325 326 325 326 326 326 324 318 316 316 318
311 312 313 313 314 315 316 318 317 316 315 315 316 316 316 315 315 315 314 315 316 317 318 319 321 319 318 317 317 317 317 316 317 319 321 321 321 322 323 324 324 325 326 326 329 329 327 327 327 327 326 325 323 323 323 322 323 322 322 320 316 317
310 311 311 311 312 313 315 317 317 316 315 314 314 314 313 312 312 312 311 312 313 315 317 318 319 317 314 312 313 313 312 312 313 314 315 315 316 317 320 322 324 325 325 325 326 327 327 328 328 327 326 326 324 323 321 319 319 321 320 318 318 318
310 310 310 310 310 311 313 315 316 316 315 314 314 313 312 310 310 310 311 310 312 313 314 316 317 315 311 310 310 310 310 309 309 309 309 310 310 311 313 315 319 321 323 325 326 326 325 325 325 326 326 326 324 324 323 322 323 322 320 319 319 318
308 309 309 309 309 310 311 312 313 313 312 312 311 311 310 309 309 309 309 310 311 311 313 313 314 313 309 308 308 308 308 307 307 308 307 306 307 308 308 310 313 317 319 320 323 324 324 324 325 324 324 325 325 324 324 325 325 323 323 323 320 317
308 309 309 308 308 308 309 310 311 311 310 309 308 308 308 307 308 308 309 309 310 310 310 311 312 311 308 307 306 306 306 305 305 305 305 305 305 305 305 307 309 311 312 315 318 318 320 321 324 326 327 325 325 325 325 326 326 325 323 321 320 319
308 308 308 307 307 307 307 307 308 309 308 308 307 306 306 307 306 306 307 307 308 309 309 310 311 311 308 306 305 304 304 303 302 303 303 303 303 303 303 304 307 307 309 311 312 313 315 317 319 322 324 325 324 325 325 325 325 324 325 324 323 321
307 307 308 307 306 306 305 306 306 307 307 308 308 306 305 306 306 306 306 306 306 307 308 309 310 311 310 307 305 303 303 302 301 301 301 301 300 301 301 301 303 304 305 307 306 308 311 313 315 318 320 323 324 324 326 326 326 325 326 326 325 324
306 307 307 306 305 305 305 304 304 306 306 306 305 304 304 304 304 305 305 305 305 305 306 307 307 308 307 307 304 303 301 301 300 300 300 300 299 299 299 299 300 300 301 302 303 304 306 308 310 313 316 318 321 323 325 326 326 326 326 325 325 325
Wind_Speed
4 4 3 3 3 3 4 9 7 8 8 7 6 6 6 6 7 8 8 7 6 5 4 4 5 5 7 4 4 3 3 3 4 5 6 6 7 7 8 8 9 9 10 11 11 9 9 8 7 5 7 9 9 5 4 4 5 4 4 3 3 3
4 5 3 3 3 3 3 6 5 3 3 4 5 5 4 4 6 5 8 5 4 3 3 2 3 3 3 3 3 3 3 4 4 4 5 6 6 6 7 8 9 10 10 10 10 5 5 6 8 6 4 7 5 4 3 4 4 4 4 3 4 3
5 4 4 4 3 4 5 4 4 4 4 4 4 6 5 5 5 5 5 4 3 2 2 2 2 1 1 1 2 4 3 3 3 5 5 6 7 7 7 7 9 9 8 7 5 4 4 4 4 5 4 4 3 4 4 4 4 3 3 3 3 4
5 4 4 4 4 4 4 4 4 4 4 4 4 5 5 4 4 4 4 3 2 2 3 3 5 6 4 2 2 4 6 7 7 7 8 4 6 6 7 7 7 7 5 3 4 3 3 4 4 3 3 4 4 3 3 3 3 3 3 3 3 5
4 4 4 4 4 4 4 4 4 4 4 4 4 5 4 3 3 3 3 2 1 2 2 2 2 3 3 2 3 3 3 3 2 3 5 3 3 3 4 3 4 4 3 3 3 3 3 3 2 2 3 4 4 4 3 2 2 2 2 3 3 5
4 4 4 3 4 4 5 4 3 3 4 4 4 4 3 2 2 2 2 2 1 3 3 3 2 2 2 2 2 2 2 1 2 2 2 1 2 2 3 2 2 3 3 2 1 3 3 4 3 1 3 4 4 4 4 4 3 3 3 3 4 7
4 4 5 4 4 4 4 3 3 3 4 3 3 3 2 2 1 1 1 1 1 1 2 2 2 2 1 1 2 2 1 1 2 2 1 1 2 1 2 2 2 3 3 3 3 1 4 3 3 3 3 3 4 4 4 4 4 4 4 4 4 9
4 4 3 4 4 4 3 3 2 2 3 3 3 2 1 1 1 1 1 1 2 2 1 0 1 1 2 2 2 2 1 1 1 1 1 0 2 2 1 1 1 3 4 4 4 4 2 3 4 3 3 3 4 4 4 5 5 5 5 5 4 7
4 5 3 4 4 3 3 3 3 3 2 3 2 2 2 1 1 2 1 1 0 1 1 0 1 1 1 1 2 2 1 1 1 1 1 2 1 2 2 1 0 1 3 4 4 4 4 4 1 3 3 3 4 4 4 4 5 5 5 5 5 6
5 4 4 4 4 4 3 3 2 3 1 2 1 2 2 1 1 0 1 1 2 1 1 1 1 1 1 2 2 2 2 2 2 1 2 4 3 2 3 2 0 0 1 3 4 4 3 4 4 3 0 2 3 4 4 4 5 4 4 4 4 4
4 5 3 4 3 3 3 3 2 2 2 2 2 1 1 1 1 1 2 2 2 1 0 0 1 1 1 2 2 2 2 2 2 3 2 2 2 3 3 3 3 3 2 3 4 3 4 4 4 4 3 2 2 2 4 4 4 4 4 4 3 4
4 4 4 4 3 3 2 2 2 2 2 1 2 1 1 1 2 1 2 2 2 2 2 1 1 1 1 1 2 2 2 2 3 3 3 3 3 2 3 4 3 2 2 2 3 3 3 4 5 4 4 4 3 2 3 4 4 5 4 4 4 4
4 4 4 3 3 2 2 2 3 2 2 2 1 1 1 1 1 1 1 1 1 2 2 3 2 1 1 1 2 3 3 3 3 3 3 4 3 2 2 2 3 2 2 2 2 3 2 3 4 4 3 3 3 4 3 4 4 4 5 5 5 5
4 4 3 3 3 2 2 3 3 2 3 2 2 1 1 1 0 1 1 1 1 2 3 2 0 0 1 1 3 4 5 4 3 3 3 2 2 2 2 3 4 3 3 2 3 3 3 4 4 3 3 3 3 4 4 4 5 5 5 6 6 6
4 4 5 5 4 3 2 2 2 2 2 2 2 2 2 1 1 1 1 1 1 2 2 2 2 2 2 3 3 4 4 4 3 3 3 2 3 2 2 4 3 4 4 3 3 2 3 3 4 4 3 3 4 4 4 5 4 4 5 5 5 5
4 4 4 4 4 3 3 2 2 3 3 2 1 1 1 1 2 1 2 2 2 2 3 3 3 3 3 3 3 4 4 3 3 2 2 2 2 3 3 3 3 3 4 6 5 5 3 4 4 5 3 3 4 5 5 4 5 5 5 5 5 6
4 4 3 3 4 4 4 4 3 3 4 2 2 1 1 1 1 1 1 1 2 2 3 4 4 4 4 4 3 3 3 4 3 3 2 2 3 3 3 3 3 3 3 4 5 6 6 4 4 4 4 3 4 5 5 5 5 5 5 6 6 6
4 4 3 2 4 4 3 3 3 2 3 3 2 1 1 1 2 2 1 1 1 2 3 3 3 3 3 4 3 3 3 4 4 3 3 2 3 2 3 2 3 2 3 3 4 5 6 5 5 5 5 5 5 4 5 5 5 5 5 6 6 7
6 5 5 4 4 4 4 3 3 3 5 4 3 3 3 4 4 3 3 3 3 3 3 3 3 3 4 4 4 3 4 5 4 3 3 3 3 3 3 3 4 4 4 5 5 5 5 5 6 6 7 8 6 6 5 5 4 5 6 7 7 7
6 4 4 4 5 5 5 5 5 4 5 4 3 4 4 4 3 4 4 4 3 3 3 4 4 4 4 5 5 4 5 5 3 2 3 4 4 3 3 4 4 5 5 4 5 5 5 5 5 6 7 7 8 8 7 6 7 7 7 7 7 6
5 6 6 5 5 4 4 3 2 3 3 2 3 4 5 4 4 4 5 4 4 3 3 3 3 2 3 4 4 4 5 4 2 3 3 4 4 3 3 4 4 3 4 4 4 4 5 5 4 4 5 7 7 6 8 8 8 7 7 7 5 7
6 7 6 5 4 3 3 1 2 2 3 4 4 5 5 5 5 5 4 5 4 3 3 3 3 3 4 3 4 4 4 4 4 3 3 3 4 4 4 4 5 5 3 5 4 3 2 1 2 2 7 6 5 5 6 6 8 9 8 7 7 7
6 7 6 6 5 4 2 3 2 1 3 4 4 4 5 5 5 6 6 6 5 5 5 5 4 4 4 4 4 4 5 5 3 3 4 4 4 5 4 4 4 4 5 3 4 2 3 4 4 3 3 4 4 5 1 2 5 8 8 8 7 8
7 6 6 6 6 5 4 4 4 4 5 5 5 4 5 6 6 7 8 7 7 6 6 6 5 5 4 4 4 4 5 4 4 4 4 4 4 4 4 4 4 5 4 6 3 2 5 5 6 4 5 2 2 1 7 3 4 5 8 11 10 10
6 7 7 6 5 4 5 6 5 6 4 4 4 4 5 7 6 5 6 7 7 6 6 6 6 6 6 6 5 5 5 5 5 4 3 3 4 5 5 5 6 5 5 5 6 4 2 4 5 4 4 5 3 2 3 3 4 5 6 8 10 11
7 6 6 5 4 5 7 6 5 4 5 5 7 6 7 6 6 6 5 3 6 7 6 6 6 7 7 6 6 6 6 5 5 5 3 4 4 4 4 5 5 5 6 6 7 7 4 2 5 5 6 6 5 7 9 6 6 6 0 7 8 10
6 6 5 5 5 5 7 6 6 5 4 5 7 5 2 2 3 3 4 5 5 6 7 7 7 7 8 7 7 7 7 7 6 6 5 3 3 4 4 5 5 4 4 5 5 6 6 5 5 5 6 7 8 7 7 7 6 7 10 2 5 7
6 6 5 5 7 6 6 5 6 5 4 4 4 4 3 2 2 2 4 6 5 6 7 7 7 9 8 8 8 8 9 9 9 8 8 8 8 6 5 4 5 5 5 5 5 7 8 5 6 4 6 7 7 6 8 10 12 11 11 13 8 4
7 6 6 6 7 7 6 5 6 5 5 4 3 3 3 3 4 3 5 4 5 5 6 6 7 9 9 9 9 9 10 10 9 8 8 8 8 8 9 9 8 6 6 5 5 6 7 7 7 7 3 2 4 6 6 8 9 9 9 12 13 10
9 7 7 8 8 8 7 5 6 6 6 5 4 3 4 5 5 5 6 7 6 6 6 6 6 9 10 10 10 9 9 9 9 9 8 8 9 9 9 9 8 8 8 9 6 7 7 6 6 6 9 10 9 6 7 6 6 8 10 12 14 11
7 7 8 9 9 9 7 7 7 6 7 6 5 5 6 7 6 7 7 7 7 6 6 6 6 8 10 10 9 9 9 9 9 9 8 9 9 9 8 8 8 8 7 8 7 8 8 8 8 8 7 6 6 6 8 10 10 9 9 9 8 10
9 9 9 10 11 9 8 8 8 8 9 9 8 8 8 8 8 8 7 7 6 6 6 5 7 7 10 10 9 8 8 8 8 8 8 7 7 7 8 8 7 7 8 8 7 7 6 7 8 7 7 5 7 8 10 10 9 8 9 10 11 13
10 9 10 10 10 9 9 9 9 10 9 9 10 9 9 9 9 8 7 7 7 6 6 7 7 8 9 9 8 9 9 8 7 7 7 7 7 8 8 7 7 9 9 10 9 9 9 9 8 8 8 8 8 9 10 10 9 9 10 12 13 13
10 9 9 9 9 9 10 9 9 10 9 9 9 9 8 9 8 7 7 7 8 8 8 7 7 8 7 8 9 8 8 8 8 9 9 9 9 9 9 7 8 9 9 9 9 10 8 10 9 9 7 8 8 8 8 7 8 9 10 10 9 9
10 9 9 9 8 9 8 9 9 9 9 8 8 8 8 7 8 8 8 8 8 7 7 8 8 7 8 10 10 9 10 9 10 10 10 10 9 9 9 8 7 8 7 8 9 9 8 9 9 10 10 9 9 8 8 9 9 10 11 10 11 11
9 8 8 8 8 8 8 8 8 9 9 9 7 7 7 8 8 8 8 8 8 8 7 7 7 8 8 10 11 11 11 11 11 11 11 11 11 10 10 9 8 8 9 7 9 10 8 9 10 11 11 10 9 9 9 10 9 9 9 10 10 9
9 7 8 8 7 7 8 8 9 9 8 8 9 9 8 9 8 8 7 7 8 8 8 8 7 8 9 9 10 11 11 11 12 12 12 12 12 11 11 10 8 10 10 11 10 10 9 9 10 11 10 12 10 10 10 9 10 10 11 10 10 9
Wind_Direction
94 97 92 86 77 92 121 123 113 115 113 115 120 120 115 111 92 84 78 70 63 58 50 44 34 39 43 43 75 75 58 47 36 34 27 24 30 24 20 23 27 30 34 39 53 42 40 54 66 67 116 140 129 96 130 129 138 140 152 159 150 177
100 100 93 77 75 77 78 82 72 66 90 117 122 104 81 69 73 62 66 60 49 60 52 42 39 51 59 45 11 29 54 46 39 32 26 20 25 19 18 15 18 28 31 42 58 48 31 32 55 77 124 114 92 121 126 138 143 154 159 164 155 210
110 109 96 86 82 71 82 78 70 75 59 59 108 81 62 65 70 77 70 62 65 56 62 42 6 60 137 97 43 2 49 34 39 43 28 22 18 15 20 14 13 25 26 42 65 60 50 38 42 49 78 90 120 129 143 156 160 162 169 175 160 213
123 105 96 91 74 83 78 77 74 63 56 51 81 82 66 75 66 80 90 84 59 73 50 25 20 38 43 40 27 23 25 34 39 38 28 19 9 19 21 25 18 22 24 29 65 73 65 40 42 68 104 125 131 146 156 160 165 166 163 205 179 224
110 107 103 98 103 88 74 63 57 54 57 46 66 80 79 69 71 88 113 136 148 111 89 78 70 41 31 13 37 42 36 27 25 41 23 2 354 348 11 14 17 16 22 20 48 91 100 69 2 63 130 150 154 160 160 152 176 178 198 214 212 225
114 102 97 83 93 121 97 78 70 78 78 41 49 60 76 72 80 98 152 133 62 28 19 19 37 78 60 36 38 48 42 37 44 50 25 353 321 348 342 359 354 348 339 28 27 117 135 144 156 228 151 167 172 174 176 174 177 188 203 221 225 220
105 111 100 99 88 76 86 96 93 112 93 63 53 73 67 64 67 72 76 119 90 59 34 359 2 3 26 78 80 49 31 1 357 347 309 325 295 288 318 329 335 334 320 332 326 128 145 160 170 182 201 192 191 187 189 188 187 190 197 207 223 224
118 114 108 101 84 91 96 91 126 102 85 128 102 81 77 102 126 183 204 199 125 120 129 91 330 358 332 0 46 103 97 6 322 297 278 114 303 343 340 341 329 332 344 344 334 332 359 148 165 176 184 215 211 203 200 198 193 196 197 199 207 227
110 116 110 112 104 99 98 92 84 104 134 140 105 129 148 161 186 232 253 271 115 110 82 42 351 323 324 13 357 5 27 36 287 295 301 308 322 320 322 224 37 331 337 345 341 337 337 337 62 152 169 206 218 220 212 210 209 208 206 199 200 222
108 121 128 118 110 106 115 120 122 114 166 99 87 127 142 180 207 266 347 358 333 69 60 0 16 14 16 357 8 351 337 324 319 293 309 308 299 271 275 282 282 267 10 324 328 314 335 327 332 343 41 182 203 218 210 206 211 216 214 211 214 215
121 126 116 111 111 115 127 122 123 102 68 64 93 113 71 77 19 358 355 338 319 313 31 22 36 95 29 9 357 338 303 305 309 299 289 273 277 269 279 264 267 266 262 284 297 310 325 318 317 323 333 300 242 206 213 215 219 209 207 206 216 227
96 116 104 96 105 115 104 124 109 73 79 96 78 109 90 41 21 358 339 332 325 331 324 42 109 93 43 353 314 296 283 295 291 297 291 268 267 264 268 291 303 283 268 264 293 317 310 310 309 314 321 308 277 217 213 210 209 208 201 192 206 221
96 88 92 106 106 110 106 108 102 108 120 83 75 61 70 83 50 315 286 292 317 320 324 334 31 58 2 338 281 267 260 257 271 276 273 270 286 298 309 300 294 301 305 270 282 277 248 247 273 282 291 288 272 254 207 197 211 200 201 194 192 202
88 86 100 96 88 75 86 105 110 107 96 111 128 135 52 141 138 195 187 206 294 306 307 314 2 151 182 220 255 260 271 283 260 256 257 268 278 286 287 293 278 288 268 236 249 253 264 279 269 266 255 251 244 240 207 208 207 202 195 203 198 190
83 66 69 64 69 72 84 102 97 87 84 71 53 40 9 2 23 345 25 28 300 272 263 251 232 213 236 227 255 278 288 286 263 250 247 237 234 237 247 272 296 303 297 268 247 234 213 246 273 279 268 260 261 258 221 222 215 204 199 202 192 199
61 75 76 75 80 79 68 70 71 88 68 52 51 23 345 341 334 318 282 272 218 230 242 236 227 220 238 245 258 281 292 287 254 240 245 248 238 243 262 286 296 296 305 305 328 312 325 298 291 285 261 238 259 256 247 225 213 213 206 187 201 201
61 69 81 94 104 90 85 60 68 71 83 58 39 32 346 351 332 311 311 287 266 240 231 223 230 216 222 233 240 247 262 261 253 234 217 216 235 245 248 266 280 287 269 291 307 303 304 301 299 289 300 265 254 250 247 235 218 207 187 198 205 207
58 51 47 68 83 92 97 96 73 84 111 98 67 19 343 325 323 322 323 330 316 301 309 273 235 231 254 264 253 247 257 263 258 246 224 216 239 228 240 233 271 245 240 256 280 293 300 303 306 306 300 294 279 248 246 238 227 209 195 206 211 212
49 43 43 48 51 67 80 88 95 56 50 47 42 21 17 19 6 358 3 351 354 358 341 333 327 313 269 274 277 276 266 263 261 257 263 259 253 241 228 227 234 239 218 218 234 245 261 281 291 293 294 292 282 250 246 238 230 222 216 216 214 217
44 41 61 54 58 56 50 40 37 24 48 34 27 28 26 25 357 17 1 356 350 348 355 341 344 335 318 299 285 272 261 268 262 228 249 273 274 264 266 261 252 257 261 243 228 234 237 250 256 259 264 264 262 263 247 232 230 225 225 225 224 212
43 46 54 47 43 50 48 43 56 67 61 342 32 52 46 25 25 20 15 6 351 355 347 351 337 325 306 304 318 327 327 317 292 264 261 262 266 282 279 286 275 251 272 278 258 222 236 236 273 282 234 253 263 245 245 237 233 235 229 228 219 217
48 54 50 56 63 67 37 50 80 68 114 60 41 42 36 26 21 23 28 25 13 2 358 337 327 324 319 321 324 326 319 301 282 262 261 265 285 283 307 311 310 297 224 263 275 201 214 135 256 260 305 309 275 256 244 235 233 238 240 236 229 226
54 54 45 44 48 49 33 41 88 151 112 86 34 50 56 38 35 39 31 28 18 17 14 12 2 350 347 342 334 318 313 308 285 253 261 264 268 281 276 268 278 289 298 246 261 222 200 184 285 260 253 293 302 329 337 237 244 243 239 238 231 232
52 51 49 40 48 40 50 60 62 80 64 75 85 76 65 45 41 39 34 24 26 22 19 20 13 8 0 345 335 326 320 314 298 250 243 259 269 275 275 281 274 282 282 299 291 267 201 204 218 271 301 211 271 219 300 282 258 248 225 233 227 231
54 48 41 35 32 53 75 57 41 52 55 57 43 41 45 37 30 38 40 27 19 18 22 25 20 18 11 2 351 350 332 319 308 294 252 256 278 292 301 293 288 284 280 280 288 284 251 211 228 219 262 304 303 269 238 290 341 280 200 225 232 232
52 44 38 31 36 55 54 60 70 82 69 65 54 32 36 26 17 28 29 5 25 21 22 24 26 20 12 6 8 1 356 346 331 319 288 271 278 293 294 300 289 289 290 278 284 287 281 219 235 226 220 230 249 286 303 310 319 301 170 216 226 226
51 40 26 28 37 59 64 61 62 67 73 82 89 69 45 22 30 17 19 35 31 20 20 22 22 22 13 7 10 9 9 9 3 354 331 291 296 295 294 290 293 279 262 266 264 272 262 269 266 238 234 231 239 240 246 276 281 298 290 233 224 231
45 42 27 23 34 39 66 64 70 67 63 64 79 97 85 67 45 53 42 36 25 25 19 20 23 23 15 9 12 13 13 14 14 4 8 3 349 333 315 301 294 280 269 257 258 267 275 253 263 253 207 234 234 242 243 242 248 258 283 289 278 226
51 39 27 30 39 34 42 58 71 74 71 51 63 77 91 74 63 41 56 33 30 23 22 21 29 28 20 16 20 19 16 15 13 6 12 5 359 355 350 343 337 319 309 295 272 270 270 277 263 261 332 279 250 254 264 258 264 255 263 281 276 267
51 40 33 33 34 34 32 34 50 52 61 49 45 47 59 54 48 36 45 29 18 21 13 17 27 33 24 22 24 23 20 18 13 6 10 1 359 356 351 346 340 333 329 324 313 303 297 299 306 290 261 263 256 246 244 255 244 257 251 243 265 270
56 50 42 40 38 34 31 34 41 41 46 43 35 45 43 39 33 36 37 29 24 16 11 14 22 35 31 19 18 22 23 19 18 13 7 5 2 349 345 338 331 322 315 313 311 303 296 281 270 273 283 270 271 285 288 286 275 256 253 262 265 263
50 45 41 38 38 32 33 31 34 36 40 36 36 40 43 40 31 35 34 31 21 21 16 17 26 38 29 15 11 14 20 19 19 10 11 358 355 351 346 339 336 332 326 315 303 304 306 305 306 302 299 297 287 283 277 271 273 282 287 283 276 277
57 47 43 38 37 33 35 31 34 40 38 36 36 35 39 38 28 29 23 23 23 24 19 19 24 35 33 17 16 13 15 13 6 6 4 1 353 355 355 348 335 335 337 335 333 327 315 301 284 275 274 262 256 253 254 259 258 261 260 253 251 259
60 47 45 44 41 41 37 36 40 45 43 38 36 37 38 38 30 26 21 21 22 19 18 12 12 33 23 23 24 22 17 14 9 6 4 360 358 0 356 349 343 344 339 333 334 335 328 325 315 300 289 293 288 280 280 269 264 269 273 277 270 262
56 45 50 50 48 45 39 38 40 45 46 44 41 37 37 40 36 32 25 29 24 20 18 12 12 28 23 20 14 12 12 12 7 2 360 358 354 351 353 346 340 339 329 333 332 327 325 326 320 315 306 295 289 282 273 266 264 263 264 261 262 266
65 60 58 59 54 51 46 43 40 46 47 46 44 44 44 43 39 37 35 34 30 25 20 15 14 19 23 22 14 8 7 6 2 3 3 0 356 351 349 346 339 341 335 341 332 329 328 325 321 322 316 310 296 291 285 282 272 265 259 260 261 261
69 65 64 65 63 57 53 48 41 41 41 46 46 45 46 43 39 35 35 36 34 31 29 26 23 20 14 20 16 11 4 4 4 2 1 359 355 354 349 345 343 342 343 342 337 335 333 330 326 323 321 320 315 307 299 293 285 277 266 260 260 262